contact:dominique.lefevre@mio.osupytheas.fr, maurice.libes@osupytheas.fr, didier.mallarino@osupytheas.fr
Project:EMSO http://www.emso-fr.org/EMSO-France
Depth: 2436.0 m
Title:EMSO Ligure Ouest : Data MII capteur AQUADOPP
Date,Latitude,Longitude,X_East,Y_North,Z_Up,Amplitude_X,Amplitude_Y,Amplitude_Z,Batterie,SoundSpeed,Heading,Pitch,Roll,Pressure,TIS,Speed,Direction
, degrees North, degrees East, m.s-1, m.s-1,m.s-1, 1, 1, 1, Volt, m.s-1, degree, degree, degree, dbar, degree_C, m.s-1, degree
2019-10-29T00:04:03,42.805,6.029,-0.006,0.029,-0.028,100.0,112.0,97.0,13.4,1505.1,327.0,-0.8,1.8,2470.46,13.27,0.029,348.3
2019-10-29T00:07:04,42.805,6.029,-0.025,0.036,-0.013,99.0,110.0,97.0,13.4,1505.2,323.6,-0.8,1.9,2470.304,13.29,0.043,325.2
2019-10-29T00:10:05,42.805,6.029,-0.024,0.024,-0.042,98.0,110.0,97.0,13.4,1505.2,327.1,-0.7,1.8,2470.189,13.3,0.033,315.0
2019-10-29T00:13:06,42.805,6.029,0.0,0.026,-0.026,100.0,107.0,100.0,13.4,1505.3,324.3,-0.7,1.8,2470.084,13.31,0.026,0.0
2019-10-29T00:16:07,42.805,6.029,-0.028,0.031,-0.025,100.0,108.0,96.0,13.4,1505.3,326.7,-0.7,1.8,2469.991,13.32,0.041,317.9
2019-10-29T00:19:08,42.805,6.029,-0.014,0.033,-0.01,99.0,108.0,96.0,13.3,1505.3,328.4,-0.7,1.8,2469.987,13.32,0.035,337.0
2019-10-29T00:22:09,42.805,6.029,-0.03,0.029,-0.039,98.0,110.0,97.0,13.4,1505.3,328.0,-0.7,1.8,2469.883,13.32,0.041,314.0
2019-10-29T00:25:10,42.805,6.029,-0.01,0.036,-0.018,101.0,108.0,96.0,13.4,1505.3,328.0,-0.7,1.8,2469.9,13.32,0.037,344.5
2019-10-29T00:28:11,42.805,6.029,-0.012,0.012,-0.027,99.0,109.0,98.0,13.4,1505.3,328.2,-0.7,1.9,2469.869,13.33,0.016,315.0
2019-10-29T00:31:12,42.805,6.029,0.0,0.027,-0.021,100.0,109.0,96.0,13.4,1505.3,325.1,-0.7,1.8,2469.844,13.33,0.026,0.0
2019-10-29T00:34:13,42.805,6.029,-0.02,0.014,0.003,99.0,108.0,97.0,13.3,1505.3,325.9,-0.7,1.8,2469.831,13.33,0.024,305.0
2019-10-29T00:37:14,42.805,6.029,-0.003,0.045,0.003,97.0,106.0,97.0,13.4,1505.3,324.6,-0.7,1.8,2469.775,13.33,0.045,356.2
2019-10-29T00:40:15,42.805,6.029,-0.009,0.036,-0.001,99.0,106.0,97.0,13.4,1505.3,324.3,-0.7,1.8,2469.781,13.33,0.037,346.0
2019-10-29T00:43:16,42.805,6.029,-0.034,0.019,-0.055,98.0,109.0,97.0,13.4,1505.3,327.7,-0.7,1.8,2469.8,13.33,0.038,299.2
2019-10-29T00:46:17,42.805,6.029,-0.004,0.026,0.005,98.0,109.0,98.0,13.3,1505.3,328.1,-0.7,1.9,2469.754,13.33,0.026,351.3
2019-10-29T00:49:18,42.805,6.029,-0.028,0.021,-0.033,98.0,110.0,97.0,13.3,1505.3,327.0,-0.7,1.8,2469.761,13.33,0.035,306.9
2019-10-29T00:52:19,42.805,6.029,-0.01,0.029,-0.019,98.0,108.0,97.0,13.4,1505.3,325.7,-0.7,1.9,2469.799,13.33,0.03,341.0
2019-10-29T00:55:20,42.805,6.029,-0.041,0.023,-0.064,99.0,108.0,97.0,13.4,1505.3,326.7,-0.7,1.8,2469.787,13.33,0.047,299.3
2019-10-29T00:58:21,42.805,6.029,0.001,0.022,-0.046,99.0,111.0,97.0,13.4,1505.3,323.7,-0.7,1.9,2469.826,13.33,0.022,2.6
2019-10-29T01:01:22,42.805,6.029,0.007,0.024,-0.033,99.0,108.0,97.0,13.4,1505.3,325.2,-0.7,1.9,2469.778,13.33,0.025,16.3
2019-10-29T01:04:23,42.805,6.029,-0.007,0.046,-0.013,99.0,109.0,97.0,13.4,1505.3,327.8,-0.7,1.8,2469.829,13.33,0.046,351.3
2019-10-29T01:07:24,42.805,6.029,-0.032,0.024,-0.024,98.0,108.0,98.0,13.4,1505.3,328.3,-0.7,1.8,2469.791,13.33,0.04,306.9
2019-10-29T01:10:25,42.805,6.029,-0.005,0.025,0.009,99.0,106.0,98.0,13.4,1505.3,328.2,-0.7,1.8,2469.759,13.33,0.025,348.7
2019-10-29T01:13:26,42.805,6.029,0.024,0.011,-0.024,99.0,108.0,98.0,13.4,1505.3,327.1,-0.7,1.8,2469.854,13.33,0.026,65.4
2019-10-29T01:16:27,42.805,6.029,0.005,0.028,-0.01,99.0,108.0,96.0,13.4,1505.3,324.2,-0.7,1.8,2469.793,13.33,0.028,10.1
2019-10-29T01:19:28,42.805,6.029,-0.012,0.012,-0.028,98.0,108.0,97.0,13.4,1505.3,326.1,-0.7,1.8,2469.809,13.33,0.016,315.0
2019-10-29T01:22:29,42.805,6.029,0.0,0.024,-0.021,97.0,108.0,97.0,13.4,1505.3,324.7,-0.7,1.9,2469.806,13.33,0.024,0.0
2019-10-29T01:25:30,42.805,6.029,-0.018,0.017,-0.018,100.0,108.0,97.0,13.4,1505.3,326.6,-0.7,1.9,2469.836,13.33,0.024,313.4
2019-10-29T01:28:31,42.805,6.029,-0.007,0.037,0.014,99.0,108.0,97.0,13.4,1505.3,325.8,-0.7,1.9,2469.782,13.33,0.037,349.3
2019-10-29T01:31:32,42.805,6.029,-0.023,0.047,-0.006,98.0,107.0,96.0,13.3,1505.3,326.6,-0.7,1.8,2469.834,13.33,0.052,333.9
2019-10-29T01:34:33,42.805,6.029,-0.011,0.035,-0.026,98.0,105.0,98.0,13.4,1505.3,328.4,-0.7,1.8,2469.792,13.33,0.036,342.6
2019-10-29T01:37:34,42.805,6.029,-0.011,0.036,-0.004,98.0,109.0,96.0,13.4,1505.3,324.6,-0.7,1.8,2469.808,13.33,0.037,343.0
2019-10-29T01:40:35,42.805,6.029,0.0,0.019,-0.014,99.0,108.0,97.0,13.4,1505.3,323.7,-0.7,1.8,2469.812,13.33,0.019,0.0
2019-10-29T01:43:36,42.805,6.029,-0.023,0.022,-0.021,97.0,108.0,98.0,13.4,1505.3,327.3,-0.7,1.8,2469.814,13.33,0.031,313.7
2019-10-29T01:46:37,42.805,6.029,-0.003,0.031,-0.014,99.0,107.0,97.0,13.4,1505.3,327.4,-0.7,1.8,2469.849,13.33,0.031,354.5
2019-10-29T01:49:38,42.805,6.029,-0.017,0.036,-0.037,100.0,109.0,96.0,13.3,1505.3,326.5,-0.7,1.8,2469.855,13.33,0.039,334.7
2019-10-29T01:52:39,42.805,6.029,-0.024,0.031,-0.064,100.0,107.0,97.0,13.4,1505.3,326.6,-0.7,1.8,2469.819,13.33,0.039,322.3
2019-10-29T01:55:40,42.805,6.029,-0.004,0.042,-0.019,99.0,109.0,97.0,13.4,1505.3,325.3,-0.7,1.8,2469.845,13.33,0.042,354.6
2019-10-29T01:58:41,42.805,6.029,0.003,0.015,-0.028,99.0,107.0,96.0,13.4,1505.3,325.3,-0.7,1.9,2469.816,13.33,0.015,11.3
2019-10-29T02:01:42,42.805,6.029,-0.003,0.025,0.009,99.0,107.0,98.0,13.4,1505.3,324.9,-0.7,1.8,2469.786,13.33,0.025,353.2
2019-10-29T02:04:43,42.805,6.029,-0.048,0.028,-0.039,99.0,109.0,97.0,13.4,1505.3,327.6,-0.7,1.9,2469.859,13.33,0.055,300.3
2019-10-29T02:07:44,42.805,6.029,-0.051,0.026,-0.029,100.0,107.0,97.0,13.4,1505.3,325.1,-0.7,1.8,2469.802,13.33,0.057,297.0
2019-10-29T02:10:45,42.805,6.029,-0.024,0.021,-0.027,99.0,108.0,97.0,13.3,1505.3,325.6,-0.7,1.9,2469.815,13.33,0.031,311.2
2019-10-29T02:13:46,42.805,6.029,-0.025,0.048,-0.011,97.0,109.0,98.0,13.3,1505.3,324.7,-0.7,1.8,2469.846,13.33,0.054,332.5
2019-10-29T02:16:47,42.805,6.029,-0.011,0.027,-0.034,97.0,109.0,96.0,13.4,1505.3,324.6,-0.7,1.8,2469.859,13.33,0.029,337.8
2019-10-29T02:19:48,42.805,6.029,-0.008,0.016,-0.029,97.0,107.0,97.0,13.3,1505.3,324.8,-0.7,1.8,2469.881,13.33,0.017,333.4
2019-10-29T02:22:49,42.805,6.029,-0.011,0.016,-0.035,99.0,108.0,96.0,13.4,1505.3,325.0,-0.7,1.9,2469.829,13.33,0.019,325.5
2019-10-29T02:25:50,42.805,6.029,-0.026,0.032,-0.015,97.0,106.0,98.0,13.3,1505.3,323.7,-0.7,1.9,2469.843,13.33,0.041,320.9
2019-10-29T02:28:51,42.805,6.029,-0.024,0.054,-0.027,99.0,108.0,97.0,13.4,1505.3,325.3,-0.7,1.8,2469.853,13.33,0.059,336.0
2019-10-29T02:31:52,42.805,6.029,-0.021,0.026,0.001,98.0,108.0,97.0,13.4,1505.3,327.8,-0.7,1.8,2469.842,13.33,0.033,321.1
2019-10-29T02:34:53,42.805,6.029,-0.002,0.035,-0.014,97.0,109.0,98.0,13.3,1505.3,323.4,-0.7,1.8,2469.816,13.33,0.035,356.7
2019-10-29T02:37:54,42.805,6.029,-0.022,0.031,-0.031,99.0,106.0,97.0,13.4,1505.3,326.5,-0.7,1.8,2469.815,13.33,0.038,324.6
2019-10-29T02:40:55,42.805,6.029,-0.023,0.01,-0.05,100.0,108.0,97.0,13.4,1505.3,324.7,-0.7,1.8,2469.812,13.33,0.025,293.5
2019-10-29T02:43:56,42.805,6.029,-0.025,0.034,-0.017,100.0,108.0,96.0,13.4,1505.3,326.0,-0.7,1.8,2469.877,13.33,0.042,323.7
2019-10-29T02:46:57,42.805,6.029,-0.029,0.012,-0.033,98.0,107.0,95.0,13.4,1505.3,325.3,-0.7,1.8,2469.878,13.33,0.031,292.5
2019-10-29T02:49:58,42.805,6.029,-0.029,0.023,-0.035,97.0,107.0,98.0,13.4,1505.3,324.1,-0.7,1.8,2469.84,13.33,0.037,308.4
2019-10-29T02:52:59,42.805,6.029,-0.002,0.017,-0.023,98.0,108.0,97.0,13.4,1505.3,327.8,-0.7,1.8,2469.838,13.33,0.017,353.3
2019-10-29T02:56:00,42.805,6.029,-0.011,0.005,-0.039,98.0,107.0,97.0,13.3,1505.3,325.5,-0.7,1.8,2469.876,13.33,0.012,294.4
2019-10-29T02:59:01,42.805,6.029,0.005,0.039,-0.036,100.0,107.0,97.0,13.3,1505.3,324.4,-0.7,1.9,2469.812,13.33,0.039,7.3
2019-10-29T03:02:02,42.805,6.029,-0.007,0.026,0.003,96.0,108.0,98.0,13.4,1505.3,327.2,-0.7,1.8,2469.831,13.33,0.026,344.9
2019-10-29T03:05:03,42.805,6.029,-0.011,0.026,-0.024,98.0,108.0,97.0,13.4,1505.3,324.5,-0.7,1.8,2469.831,13.33,0.028,337.1
2019-10-29T03:08:04,42.805,6.029,-0.022,0.047,-0.025,98.0,107.0,97.0,13.4,1505.3,327.2,-0.7,1.8,2469.828,13.33,0.051,334.9
2019-10-29T03:11:05,42.805,6.029,-0.007,0.037,0.001,100.0,108.0,97.0,13.3,1505.4,328.5,-0.7,1.8,2469.856,13.34,0.037,349.3
2019-10-29T03:14:06,42.805,6.029,-0.025,0.028,-0.039,100.0,108.0,96.0,13.4,1505.4,323.9,-0.7,1.8,2469.875,13.34,0.037,318.2
2019-10-29T03:17:07,42.805,6.029,-0.009,0.017,-0.025,101.0,108.0,97.0,13.4,1505.3,327.6,-0.7,1.8,2469.846,13.33,0.019,332.1
2019-10-29T03:20:08,42.805,6.029,-0.011,0.021,-0.028,99.0,111.0,97.0,13.4,1505.3,326.8,-0.7,1.8,2469.883,13.33,0.023,332.4
2019-10-29T03:23:09,42.805,6.029,-0.021,0.024,-0.01,99.0,109.0,97.0,13.4,1505.3,327.0,-0.7,1.8,2469.828,13.33,0.031,318.8
2019-10-29T03:26:10,42.805,6.029,-0.026,0.025,-0.03,98.0,109.0,97.0,13.3,1505.3,327.2,-0.7,1.8,2469.859,13.33,0.036,313.9
2019-10-29T03:29:11,42.805,6.029,-0.009,0.02,-0.033,101.0,108.0,97.0,13.4,1505.3,327.3,-0.7,1.8,2469.88,13.33,0.021,335.8
2019-10-29T03:32:12,42.805,6.029,-0.031,0.018,-0.063,102.0,110.0,97.0,13.4,1505.3,325.5,-0.7,1.8,2469.898,13.33,0.035,300.1
2019-10-29T03:35:13,42.805,6.029,-0.021,0.029,0.0,98.0,107.0,98.0,13.4,1505.3,324.5,-0.8,1.8,2469.866,13.33,0.035,324.1
2019-10-29T03:38:14,42.805,6.029,-0.011,0.032,-0.002,99.0,108.0,97.0,13.3,1505.3,325.2,-0.7,1.8,2469.847,13.33,0.033,341.0
2019-10-29T03:41:15,42.805,6.029,-0.006,0.036,-0.014,98.0,107.0,98.0,13.3,1505.3,323.3,-0.7,1.8,2469.894,13.33,0.036,350.5
2019-10-29T03:44:16,42.805,6.029,-0.045,0.014,-0.027,101.0,106.0,97.0,13.4,1505.3,326.6,-0.7,1.9,2469.893,13.33,0.047,287.3
2019-10-29T03:47:17,42.805,6.029,-0.036,0.025,-0.06,99.0,107.0,97.0,13.4,1505.4,324.9,-0.7,1.8,2469.905,13.34,0.043,304.8
2019-10-29T03:50:18,42.805,6.029,-0.012,0.012,-0.017,101.0,110.0,96.0,13.4,1505.3,328.0,-0.7,1.8,2469.92,13.33,0.016,315.0
2019-10-29T03:53:19,42.805,6.029,-0.019,0.016,-0.013,98.0,109.0,96.0,13.4,1505.3,324.2,-0.7,1.8,2469.903,13.33,0.024,310.1
2019-10-29T03:56:20,42.805,6.029,-0.021,0.012,0.006,99.0,109.0,97.0,13.3,1505.3,323.7,-0.8,1.8,2469.901,13.33,0.024,299.7
2019-10-29T03:59:21,42.805,6.029,-0.005,0.015,-0.025,98.0,107.0,97.0,13.3,1505.3,323.0,-0.7,1.9,2469.908,13.33,0.015,341.6
2019-10-29T04:02:22,42.805,6.029,-0.034,0.023,-0.023,97.0,107.0,97.0,13.4,1505.3,327.6,-0.7,1.8,2469.946,13.33,0.041,304.1
2019-10-29T04:05:23,42.805,6.029,-0.042,0.031,-0.041,99.0,110.0,97.0,13.4,1505.3,323.8,-0.7,1.8,2469.895,13.33,0.052,306.4
2019-10-29T04:08:24,42.805,6.029,-0.014,0.031,-0.043,99.0,109.0,96.0,13.3,1505.4,327.2,-0.7,1.8,2469.955,13.34,0.034,335.7
2019-10-29T04:11:25,42.805,6.029,0.009,0.028,-0.004,99.0,110.0,96.0,13.4,1505.4,327.7,-0.7,1.8,2469.932,13.34,0.029,17.8
2019-10-29T04:14:26,42.805,6.029,-0.021,0.008,-0.048,98.0,109.0,98.0,13.3,1505.3,324.6,-0.7,1.8,2469.962,13.33,0.022,290.9
2019-10-29T04:17:27,42.805,6.029,-0.056,0.031,-0.016,99.0,108.0,97.0,13.3,1505.4,323.2,-0.7,1.8,2469.889,13.34,0.064,299.0
2019-10-29T04:20:28,42.805,6.029,-0.001,0.027,-0.028,100.0,108.0,96.0,13.4,1505.4,325.0,-0.7,1.8,2469.912,13.34,0.027,357.9
2019-10-29T04:23:29,42.805,6.029,-0.006,0.007,-0.053,97.0,110.0,96.0,13.4,1505.4,325.0,-0.7,1.8,2469.928,13.34,0.009,319.4
2019-10-29T04:26:30,42.805,6.029,-0.006,0.028,-0.002,98.0,106.0,97.0,13.4,1505.4,328.3,-0.7,1.9,2469.925,13.34,0.028,347.9
2019-10-29T04:29:31,42.805,6.029,-0.024,0.034,-0.02,100.0,108.0,97.0,13.4,1505.3,323.9,-0.7,1.8,2469.922,13.33,0.041,324.8
2019-10-29T04:32:32,42.805,6.029,-0.033,0.021,-0.048,98.0,107.0,98.0,13.3,1505.3,327.2,-0.7,1.8,2469.962,13.33,0.039,302.5
2019-10-29T04:35:33,42.805,6.029,-0.027,0.019,-0.017,99.0,109.0,98.0,13.3,1505.3,325.9,-0.7,1.8,2469.936,13.33,0.033,305.1
2019-10-29T04:38:34,42.805,6.029,-0.023,0.021,-0.019,99.0,109.0,97.0,13.4,1505.3,325.1,-0.7,1.8,2469.982,13.33,0.031,312.4
2019-10-29T04:41:35,42.805,6.029,-0.002,0.031,0.0,99.0,108.0,97.0,13.4,1505.3,324.7,-0.7,1.8,2469.93,13.33,0.031,356.3
2019-10-29T04:44:36,42.805,6.029,-0.006,0.032,0.023,100.0,109.0,97.0,13.4,1505.3,327.6,-0.7,1.8,2469.965,13.33,0.032,349.4
2019-10-29T04:47:37,42.805,6.029,-0.044,0.002,-0.026,98.0,108.0,97.0,13.3,1505.3,323.0,-0.7,1.8,2469.972,13.33,0.044,272.6
2019-10-29T04:50:38,42.805,6.029,-0.016,0.028,-0.032,99.0,107.0,97.0,13.4,1505.3,325.9,-0.7,1.8,2469.969,13.33,0.032,330.3
2019-10-29T04:53:39,42.805,6.029,-0.013,0.028,-0.05,99.0,107.0,97.0,13.4,1505.3,326.0,-0.7,1.8,2469.993,13.33,0.03,335.1
2019-10-29T04:56:40,42.805,6.029,-0.016,0.014,-0.038,96.0,109.0,98.0,13.4,1505.3,325.8,-0.7,1.9,2469.986,13.33,0.021,311.2
2019-10-29T04:59:41,42.805,6.029,-0.049,0.029,-0.016,98.0,108.0,97.0,13.4,1505.3,326.7,-0.7,1.8,2469.948,13.33,0.056,300.6
2019-10-29T05:02:42,42.805,6.029,-0.006,0.042,-0.008,98.0,109.0,97.0,13.3,1505.3,326.6,-0.7,1.8,2469.995,13.33,0.042,351.9
2019-10-29T05:05:43,42.805,6.029,-0.053,0.012,-0.078,97.0,109.0,98.0,13.3,1505.3,324.5,-0.7,1.8,2470.01,13.33,0.054,282.8
2019-10-29T05:08:44,42.805,6.029,-0.013,0.04,0.027,99.0,107.0,97.0,13.3,1505.3,325.7,-0.7,1.8,2469.959,13.33,0.042,342.0
2019-10-29T05:11:45,42.805,6.029,-0.02,0.031,-0.038,98.0,108.0,98.0,13.4,1505.3,326.9,-0.8,1.8,2469.979,13.33,0.036,327.2
2019-10-29T05:14:46,42.805,6.029,-0.013,0.023,-0.032,99.0,108.0,96.0,13.4,1505.3,323.8,-0.7,1.8,2469.984,13.33,0.026,330.5
2019-10-29T05:17:47,42.805,6.029,-0.02,0.022,-0.033,99.0,107.0,97.0,13.4,1505.3,325.6,-0.7,1.8,2470.023,13.33,0.029,317.7
2019-10-29T05:20:48,42.805,6.029,-0.005,0.02,-0.048,98.0,108.0,98.0,13.4,1505.3,327.8,-0.7,1.9,2469.982,13.33,0.02,346.0
2019-10-29T05:23:49,42.805,6.029,-0.024,0.03,-0.027,98.0,108.0,98.0,13.4,1505.3,326.0,-0.7,1.8,2470.021,13.33,0.038,321.3
2019-10-29T05:26:50,42.805,6.029,-0.007,0.004,-0.011,99.0,109.0,97.0,13.4,1505.3,327.1,-0.7,1.9,2470.011,13.33,0.008,299.7
2019-10-29T05:29:51,42.805,6.029,-0.034,0.035,-0.043,98.0,109.0,97.0,13.4,1505.3,326.6,-0.7,1.8,2470.001,13.33,0.048,315.8
2019-10-29T05:32:52,42.805,6.029,-0.055,0.027,-0.055,97.0,108.0,97.0,13.4,1505.3,326.0,-0.7,1.9,2470.027,13.33,0.061,296.1
2019-10-29T05:35:53,42.805,6.029,-0.025,0.028,-0.028,98.0,106.0,97.0,13.4,1505.3,327.3,-0.7,1.8,2470.017,13.33,0.037,318.2
2019-10-29T05:38:54,42.805,6.029,-0.039,0.023,-0.036,99.0,109.0,96.0,13.4,1505.3,327.2,-0.7,1.8,2470.052,13.33,0.045,300.5
2019-10-29T05:41:55,42.805,6.029,-0.043,0.016,-0.04,99.0,107.0,96.0,13.4,1505.3,327.1,-0.8,1.9,2470.015,13.33,0.045,290.4
2019-10-29T05:44:56,42.805,6.029,-0.021,0.029,0.021,98.0,107.0,97.0,13.3,1505.3,327.1,-0.7,1.9,2470.029,13.33,0.035,324.1
2019-10-29T05:47:57,42.805,6.029,-0.002,0.032,0.007,98.0,108.0,97.0,13.4,1505.3,326.3,-0.7,1.8,2470.039,13.33,0.032,356.4
2019-10-29T05:50:58,42.805,6.029,-0.039,0.037,-0.039,99.0,109.0,97.0,13.4,1505.3,324.9,-0.7,1.9,2470.025,13.33,0.053,313.5
2019-10-29T05:53:59,42.805,6.029,-0.007,0.012,-0.002,98.0,109.0,97.0,13.4,1505.3,326.4,-0.7,1.8,2470.063,13.33,0.013,329.7
2019-10-29T05:57:00,42.805,6.029,-0.026,0.027,0.008,99.0,109.0,96.0,13.4,1505.3,326.6,-0.7,1.8,2470.025,13.33,0.037,316.1
2019-10-29T06:00:01,42.805,6.029,-0.018,0.024,0.014,98.0,108.0,97.0,13.4,1505.3,327.2,-0.7,1.8,2470.052,13.33,0.03,323.1
2019-10-29T06:03:02,42.805,6.029,0.013,0.02,0.005,98.0,108.0,97.0,13.3,1505.3,326.4,-0.7,1.9,2470.039,13.33,0.023,33.0
2019-10-29T06:06:03,42.805,6.029,-0.01,0.005,-0.057,99.0,107.0,97.0,13.3,1505.3,326.8,-0.7,1.8,2470.058,13.33,0.011,296.6
2019-10-29T06:09:04,42.805,6.029,0.011,0.021,0.004,99.0,108.0,97.0,13.4,1505.3,327.8,-0.7,1.8,2470.067,13.33,0.023,27.6
2019-10-29T06:12:05,42.805,6.029,-0.067,0.018,-0.024,98.0,108.0,98.0,13.4,1505.3,326.8,-0.7,1.9,2470.065,13.33,0.069,285.0
2019-10-29T06:15:06,42.805,6.029,-0.002,0.046,-0.02,100.0,108.0,96.0,13.4,1505.3,327.0,-0.7,1.8,2470.081,13.33,0.046,357.5
2019-10-29T06:18:07,42.805,6.029,-0.024,0.006,-0.026,99.0,108.0,97.0,13.4,1505.3,325.7,-0.7,1.8,2470.061,13.33,0.024,284.0
2019-10-29T06:21:08,42.805,6.029,-0.036,0.024,-0.009,99.0,109.0,97.0,13.4,1505.3,328.8,-0.7,1.8,2470.096,13.33,0.043,303.7
2019-10-29T06:24:09,42.805,6.029,-0.057,0.04,-0.024,98.0,109.0,97.0,13.4,1505.3,326.7,-0.7,1.8,2470.09,13.33,0.069,305.1
2019-10-29T06:27:10,42.805,6.029,-0.055,0.045,0.021,99.0,108.0,96.0,13.3,1505.3,325.0,-0.7,1.8,2470.078,13.33,0.071,309.3
2019-10-29T06:30:11,42.805,6.029,-0.043,0.021,-0.043,98.0,109.0,96.0,13.3,1505.3,324.6,-0.7,1.8,2470.117,13.33,0.047,296.0
2019-10-29T06:33:12,42.805,6.029,-0.063,0.031,-0.046,98.0,108.0,97.0,13.3,1505.3,327.4,-0.7,1.8,2470.069,13.33,0.07,296.2
2019-10-29T06:36:13,42.805,6.029,-0.014,0.053,0.006,100.0,108.0,96.0,13.4,1505.3,327.8,-0.7,1.8,2470.101,13.33,0.054,345.2
2019-10-29T06:39:14,42.805,6.029,-0.049,0.039,0.005,99.0,108.0,97.0,13.4,1505.3,326.6,-0.7,1.8,2470.111,13.33,0.062,308.5
2019-10-29T06:42:15,42.805,6.029,-0.031,0.027,-0.016,98.0,108.0,97.0,13.4,1505.3,328.2,-0.7,1.8,2470.11,13.33,0.041,311.1
2019-10-29T06:45:16,42.805,6.029,-0.048,0.051,-0.03,100.0,108.0,97.0,13.4,1505.3,326.4,-0.7,1.9,2470.105,13.33,0.07,316.7
2019-10-29T06:48:17,42.805,6.029,-0.045,0.035,-0.072,99.0,108.0,97.0,13.4,1505.3,327.6,-0.7,1.8,2470.134,13.33,0.057,307.9
2019-10-29T06:51:18,42.805,6.029,-0.038,0.031,-0.031,98.0,109.0,97.0,13.4,1505.3,326.0,-0.7,1.8,2470.136,13.33,0.049,309.2
2019-10-29T06:54:19,42.805,6.029,-0.075,0.039,-0.039,99.0,109.0,96.0,13.4,1505.3,324.9,-0.8,1.8,2470.14,13.33,0.084,297.5
2019-10-29T06:57:20,42.805,6.029,-0.027,0.022,-0.01,98.0,108.0,97.0,13.3,1505.3,327.4,-0.7,1.8,2470.106,13.33,0.034,309.2
2019-10-29T07:00:21,42.805,6.029,-0.034,0.03,-0.046,97.0,110.0,96.0,13.4,1505.3,323.6,-0.7,1.8,2470.141,13.33,0.045,311.4
2019-10-29T07:03:22,42.805,6.029,-0.02,0.024,-0.003,99.0,108.0,97.0,13.4,1505.3,327.8,-0.7,1.8,2470.129,13.33,0.031,320.2
2019-10-29T07:06:23,42.805,6.029,-0.038,0.018,-0.065,100.0,109.0,96.0,13.4,1505.3,323.6,-0.7,1.9,2470.12,13.33,0.042,295.3
2019-10-29T07:09:24,42.805,6.029,-0.036,0.038,-0.004,98.0,107.0,97.0,13.4,1505.3,323.2,-0.7,1.8,2470.106,13.33,0.052,316.5
2019-10-29T07:12:25,42.805,6.029,-0.044,0.018,-0.043,99.0,108.0,97.0,13.4,1505.3,324.8,-0.7,1.8,2470.138,13.33,0.047,292.2
2019-10-29T07:15:26,42.805,6.029,-0.029,0.054,-0.014,99.0,109.0,97.0,13.4,1505.3,328.2,-0.7,1.8,2470.137,13.33,0.061,331.8
2019-10-29T07:18:27,42.805,6.029,-0.026,0.021,-0.029,99.0,108.0,97.0,13.3,1505.3,323.8,-0.7,1.8,2470.114,13.33,0.033,308.9
2019-10-29T07:21:28,42.805,6.029,-0.042,0.019,-0.023,99.0,110.0,96.0,13.4,1505.3,324.3,-0.7,1.9,2470.142,13.33,0.046,294.3
2019-10-29T07:24:29,42.805,6.029,-0.055,0.038,-0.027,98.0,107.0,98.0,13.4,1505.3,327.3,-0.7,1.8,2470.101,13.33,0.066,304.6
2019-10-29T07:27:30,42.805,6.029,-0.054,0.026,-0.046,99.0,109.0,98.0,13.3,1505.3,325.3,-0.7,1.8,2470.128,13.33,0.059,295.7
2019-10-29T07:30:31,42.805,6.029,-0.03,0.022,-0.046,99.0,109.0,97.0,13.3,1505.3,325.4,-0.7,1.9,2470.131,13.33,0.037,306.3
2019-10-29T07:33:32,42.805,6.029,-0.045,0.029,0.007,98.0,109.0,98.0,13.3,1505.3,326.2,-0.7,1.8,2470.124,13.33,0.053,302.8
2019-10-29T07:36:33,42.805,6.029,0.0,0.015,-0.007,100.0,107.0,96.0,13.3,1505.3,327.8,-0.7,1.8,2470.11,13.33,0.015,0.0
2019-10-29T07:39:34,42.805,6.029,-0.055,0.034,-0.05,99.0,110.0,97.0,13.4,1505.3,325.6,-0.7,1.8,2470.13,13.33,0.064,301.7
